Regional Weather Roundup
Issued by NWS

Home | Current Version | Previous Version | Graphics & Text | Print | Product List | Glossary On
Versions: 1 2 3 4 5 6 7 8 9 10 11 12 13 14 15 16 17 18 19 20 21 22 23 24 25 26 27 28 29 30 31 32 33 34 35 36 37 38 39 40 41 42 43 44 45 46 47 48 49 50
169
ASUS43 KIND 280409
RWRIN

WEATHER ROUNDUP FOR INDIANA
NATIONAL WEATHER SERVICE INDIANAPOLIS IN
1200 AM EDT SUN AUG 28 2016

NOTE: "FAIR" INDICATES FEW OR NO CLOUDS BELOW 12,000 FEET WITH NO
SIGNIFICANT WEATHER AND/OR OBSTRUCTIONS TO VISIBILITY.

* - STATION DOES NOT REPORT WEATHER SUCH AS PRECIPITATION OR FOG.

+ - STATION NOT QUALITY CONTROLLED BY THE NATIONAL WEATHER SERVICE.
    USE DATA WITH CAUTION...ESPECIALLY DEWPOINT AND RELATIVE
    HUMIDITY OBSERVATIONS.

INZ001>003-010>013-019-020-280500-
NORTHWEST INDIANA

CITY           SKY/WX    TMP DP  RH WIND       PRES   REMARKS
GARY /AIRPORT/ PTCLDY    76  74  95 CALM      30.09S
KNOX *+        PTCLDY    72  59  64 S3        30.10S
LA PORTE +     CLOUDY   N/A N/A N/A CALM      30.11S
MICHIGAN CITY+ MOCLDY    75  73  94 MISG      30.10S
MONTICELLO +   CLEAR     74  70  86 CALM      30.09F
RENSSELAER +   CLOUDY    73  72  94 CALM      30.10S
VALPARAISO     CLOUDY    76  72  87 CALM      30.10F

$$

LMZ046-743>745-280500-
SOUTHERN LAKE MICHIGAN

STATION/POSITION TIME  TEMP    WIND        PRES    WAVE
                       AIR SEA DIR/SP/G            HT
                 (UTC) (F)     (DEG/KT/KT) (MB)    (FT)
BURNS HARBOR     0401   78     190/  6/ 11 1019.3R
MICHIGAN CITY    0300   78     160/ 11/ 13   N/A
5NW MICH CITY    0400   77 76  190/  6/  6   N/A     1

$$

INZ004-005-014>016-021>024-280500-
NORTH CENTRAL INDIANA

CITY           SKY/WX    TMP DP  RH WIND       PRES   REMARKS
GOSHEN         PTCLDY    71  68  90 S3        30.11S
LOGANSPORT +   CLOUDY    72  70  94 SE6       30.12S
PERU/GRISSOM   CLOUDY    73  72  98 S3        30.11R
ROCHESTER +    CLEAR     77  73  88 CALM      30.12S
SOUTH BEND     CLOUDY    74  72  93 S5        30.11S
WARSAW +       PTCLDY    73  73 100 CALM      30.12S

$$

INZ006>009-017-018-025>027-280500-
NORTHEAST INDIANA

CITY           SKY/WX    TMP DP  RH WIND       PRES   REMARKS
ANGOLA *+      CLEAR     72  64  78 CALM      30.13S
AUBURN +       CLOUDY    73  70  88 CALM      30.14R
FORT WAYNE     MOCLDY    72  69  90 SE3       30.13S
HUNTINGTON +   PTCLDY    73  71  94 S3        30.12F

$$

INZ028-029-035-036-043>045-051>053-280500-
WEST CENTRAL INDIANA

CITY           SKY/WX    TMP DP  RH WIND       PRES   REMARKS
CRAWFORDSVL +  CLOUDY    70  70 100 SE3       30.11F
GREENCASTLE +  CLOUDY    72  72 100 CALM      30.13S
LAFAYETTE      CLEAR     74  72  93 CALM      30.09F
TERRE HAUTE    CLOUDY    76  72  87 CALM      30.11R

$$

INZ030>032-037>040-046>048-054>057-064-065-280500-
CENTRAL INDIANA

CITY           SKY/WX    TMP DP  RH WIND       PRES   REMARKS
INDIANAPOLIS   PTCLDY    76  73  91 SE7       30.12S
-EAGLE CREEK   PTCLDY    76  72  87 CALM      30.11F
KOKOMO *+      PTCLDY    73  72  94 S9        30.12S
MARION +       CLEAR     72  69  92 S5        30.13F
MT COMFORT *+  PTCLDY    72  70  94 SE5       30.14S
SHELBYVILLE    PTCLDY    74  71  91 E6        30.13S
ZIONSVILLE +   PTCLDY    69  68  97 CALM      30.14S

$$

INZ033-034-041-042-049-050-058-059-280500-
EAST CENTRAL INDIANA

CITY           SKY/WX    TMP DP  RH WIND       PRES   REMARKS
MUNCIE         PTCLDY    76  71  85 S3        30.14S

$$

INZ060-061-067>069-081>083-085>088-280500-
SOUTHWEST INDIANA

CITY           SKY/WX    TMP DP  RH WIND       PRES   REMARKS
EVANSVILLE     PTCLDY    79  74  84 NE3       30.11R
HUNTINGBURG *+ MOCLDY    75  72  88 CALM      30.13R
WASHINGTON +   PTCLDY    74  74 100 MISG      30.12R

$$

INZ062-063-066-070>080-084-089>092-280500-
SOUTH CENTRAL AND SOUTHEAST INDIANA

CITY           SKY/WX    TMP DP  RH WIND       PRES   REMARKS
BLOOMINGTON    CLOUDY    73  71  93 S3        30.14S
MADISON *+     PTCLDY    73  72  94 CALM      30.17R

$$





USA.gov is the U.S. government's official web portal to all federal, state and local government web resources and services.